TimeMDT,TemperatureF,Dew PointF,Humidity,Sea Level PressureIn,VisibilityMPH,Wind Direction,Wind SpeedMPH,Gust SpeedMPH,PrecipitationIn,Events,Conditions,WindDirDegrees,DateUTC
12:15 AM,41.0,35.6,81,30.13,9.0,Calm,Calm,-,N/A,,Clear,0,2013-04-21 06:15:00
2:55 AM,35.6,33.8,93,30.13,10.0,Calm,Calm,-,N/A,,Clear,0,2013-04-21 08:55:00
3:15 AM,33.8,33.8,100,30.13,10.0,Calm,Calm,-,N/A,,Clear,0,2013-04-21 09:15:00
3:35 AM,35.6,33.8,93,30.13,10.0,Calm,Calm,-,N/A,,Clear,0,2013-04-21 09:35:00
3:55 AM,32.0,32.0,100,30.13,10.0,SE,3.5,-,N/A,,Clear,130,2013-04-21 09:55:00
4:15 AM,35.6,33.8,93,30.13,10.0,Calm,Calm,-,N/A,,Clear,0,2013-04-21 10:15:00
4:35 AM,35.6,33.8,93,30.12,10.0,Calm,Calm,-,N/A,,Clear,0,2013-04-21 10:35:00
4:55 AM,32.0,32.0,100,30.12,10.0,Calm,Calm,-,N/A,,Clear,0,2013-04-21 10:55:00
5:15 AM,32.0,32.0,100,30.13,10.0,Calm,Calm,-,N/A,,Clear,0,2013-04-21 11:15:00
5:35 AM,32.0,32.0,100,30.12,10.0,Calm,Calm,-,N/A,,Clear,0,2013-04-21 11:35:00
5:55 AM,35.6,33.8,93,30.13,10.0,Calm,Calm,-,N/A,,Partly Cloudy,0,2013-04-21 11:55:00
6:15 AM,33.8,33.8,100,30.13,10.0,North,-9999.0,-,N/A,,Partly Cloudy,0,2013-04-21 12:15:00
6:35 AM,33.8,33.8,100,30.14,10.0,Calm,Calm,-,N/A,,Clear,0,2013-04-21 12:35:00
6:55 AM,33.8,33.8,100,30.14,10.0,Calm,Calm,-,N/A,,Mostly Cloudy,0,2013-04-21 12:55:00
7:15 AM,33.8,33.8,100,30.15,10.0,Calm,Calm,-,N/A,,Overcast,0,2013-04-21 13:15:00
7:35 AM,35.6,35.6,100,30.15,10.0,Calm,Calm,-,N/A,,Overcast,0,2013-04-21 13:35:00
7:55 AM,37.4,37.4,100,30.15,10.0,Calm,Calm,-,N/A,,Overcast,0,2013-04-21 13:55:00
8:15 AM,39.2,37.4,93,30.16,10.0,Calm,Calm,-,N/A,,Mostly Cloudy,0,2013-04-21 14:15:00
8:35 AM,41.0,37.4,87,30.16,10.0,Calm,Calm,-,N/A,,Mostly Cloudy,0,2013-04-21 14:35:00
8:55 AM,42.8,37.4,81,30.16,10.0,Calm,Calm,-,N/A,,Overcast,0,2013-04-21 14:55:00
9:15 AM,46.4,35.6,66,30.16,10.0,WNW,4.6,-,N/A,,Scattered Clouds,300,2013-04-21 15:15:00
9:35 AM,48.2,35.6,62,30.15,10.0,NW,5.8,-,N/A,,Scattered Clouds,310,2013-04-21 15:35:00
9:55 AM,50.0,33.8,54,30.16,10.0,WNW,8.1,-,N/A,,Partly Cloudy,300,2013-04-21 15:55:00
10:15 AM,51.8,32.0,47,30.15,10.0,NW,8.1,-,N/A,,Mostly Cloudy,320,2013-04-21 16:15:00
10:35 AM,51.8,32.0,47,30.15,10.0,NNW,8.1,-,N/A,,Overcast,330,2013-04-21 16:35:00
10:55 AM,53.6,33.8,47,30.15,10.0,NNW,9.2,-,N/A,,Overcast,330,2013-04-21 16:55:00
11:15 AM,53.6,32.0,44,30.14,10.0,North,6.9,-,N/A,,Overcast,360,2013-04-21 17:15:00
11:35 AM,55.4,33.8,44,30.13,10.0,North,8.1,-,N/A,,Mostly Cloudy,360,2013-04-21 17:35:00
11:55 AM,55.4,33.8,44,30.13,10.0,North,8.1,-,N/A,,Partly Cloudy,360,2013-04-21 17:55:00
12:15 PM,55.4,32.0,41,30.12,10.0,NNE,4.6,-,N/A,,Clear,30,2013-04-21 18:15:00
12:35 PM,57.2,32.0,38,30.11,10.0,NNW,8.1,-,N/A,,Clear,330,2013-04-21 18:35:00
12:55 PM,59.0,32.0,36,30.10,10.0,NNE,6.9,-,N/A,,Mostly Cloudy,30,2013-04-21 18:55:00
1:15 PM,59.0,32.0,36,30.09,10.0,ENE,4.6,-,N/A,,Mostly Cloudy,70,2013-04-21 19:15:00
1:35 PM,59.0,32.0,36,30.08,10.0,NE,10.4,-,N/A,,Scattered Clouds,40,2013-04-21 19:35:00
1:55 PM,62.6,32.0,32,30.07,10.0,North,6.9,-,N/A,,Partly Cloudy,350,2013-04-21 19:55:00
2:15 PM,62.6,32.0,32,30.06,10.0,North,11.5,-,N/A,,Partly Cloudy,10,2013-04-21 20:15:00
2:35 PM,62.6,28.4,27,30.06,10.0,NNW,13.8,17.3,N/A,,Mostly Cloudy,330,2013-04-21 20:35:00
2:55 PM,62.6,26.6,26,30.05,10.0,North,8.1,-,N/A,,Overcast,350,2013-04-21 20:55:00
3:15 PM,62.6,28.4,27,30.04,10.0,NNW,8.1,-,N/A,,Scattered Clouds,340,2013-04-21 21:15:00
3:35 PM,62.6,28.4,27,30.04,10.0,NNW,9.2,-,N/A,,Partly Cloudy,330,2013-04-21 21:35:00
3:55 PM,64.4,28.4,26,30.02,10.0,NNW,8.1,-,N/A,,Partly Cloudy,330,2013-04-21 21:55:00
4:15 PM,64.4,28.4,26,30.01,10.0,NNW,4.6,-,N/A,,Partly Cloudy,330,2013-04-21 22:15:00
4:55 PM,64.4,28.4,26,29.99,10.0,NW,9.2,-,N/A,,Partly Cloudy,320,2013-04-21 22:55:00
5:15 PM,64.4,28.4,26,29.98,10.0,NNE,8.1,-,N/A,,Clear,20,2013-04-21 23:15:00
5:35 PM,64.4,30.2,28,29.98,10.0,North,10.4,-,N/A,,Clear,10,2013-04-21 23:35:00
5:55 PM,64.4,30.2,28,29.99,10.0,North,9.2,-,N/A,,Partly Cloudy,10,2013-04-21 23:55:00
6:15 PM,62.6,28.4,27,29.99,10.0,North,11.5,17.3,N/A,,Scattered Clouds,360,2013-04-22 00:15:00
6:35 PM,62.6,28.4,27,29.99,10.0,North,12.7,19.6,N/A,,Scattered Clouds,10,2013-04-22 00:35:00
6:55 PM,62.6,28.4,27,29.99,10.0,North,10.4,-,N/A,,Partly Cloudy,350,2013-04-22 00:55:00
7:15 PM,60.8,28.4,29,29.99,10.0,North,6.9,-,N/A,,Clear,350,2013-04-22 01:15:00
7:35 PM,59.0,30.2,34,29.99,10.0,North,5.8,-,N/A,,Clear,350,2013-04-22 01:35:00
7:55 PM,59.0,30.2,34,29.99,10.0,NNW,5.8,-,N/A,,Partly Cloudy,340,2013-04-22 01:55:00
8:15 PM,59.0,30.2,34,30.00,10.0,NNW,8.1,-,N/A,,Scattered Clouds,330,2013-04-22 02:15:00
8:35 PM,59.0,28.4,31,30.00,10.0,NNW,9.2,-,N/A,,Mostly Cloudy,340,2013-04-22 02:35:00
8:55 PM,59.0,28.4,31,30.01,10.0,NNW,10.4,-,N/A,,Overcast,340,2013-04-22 02:55:00
9:15 PM,57.2,30.2,36,30.02,10.0,NNW,11.5,-,N/A,,Mostly Cloudy,340,2013-04-22 03:15:00
9:35 PM,55.4,32.0,41,30.03,10.0,NNW,8.1,-,N/A,,Mostly Cloudy,330,2013-04-22 03:35:00
9:55 PM,53.6,32.0,44,30.04,10.0,NNW,10.4,-,N/A,,Mostly Cloudy,330,2013-04-22 03:55:00
10:15 PM,53.6,32.0,44,30.04,10.0,North,9.2,17.3,N/A,,Mostly Cloudy,350,2013-04-22 04:15:00
10:35 PM,51.8,32.0,47,30.05,10.0,North,9.2,-,N/A,,Mostly Cloudy,350,2013-04-22 04:35:00
11:15 PM,50.0,32.0,50,30.07,10.0,NW,4.6,-,N/A,,Mostly Cloudy,320,2013-04-22 05:15:00
11:35 PM,50.0,32.0,50,30.07,10.0,WNW,5.8,-,N/A,,Mostly Cloudy,300,2013-04-22 05:35:00
11:55 PM,48.2,33.8,58,30.08,10.0,West,9.2,-,N/A,,Mostly Cloudy,270,2013-04-22 05:55:00